Flag for Germany Weather past 2 weeks in Bad Oldesloe, Schleswig-Holstein, Germany

Now
63 °F

Passing clouds.


Feels Like: 63 °F
Forecast: 48 / 65 °F
Wind: 8 mph from Southwest

Location: Luebeck-Blankensee

Current Time: Sep 2, 2015 at 7:41:18 PM

Latest Report: Sep 2, 2015 at 7:20 PM


Visibility: N/A

Pressure: 29.95 "Hg

Humidity: 64%

Dew point: 50 °F

Location of Bad OldesloeLocation

Historic Weather in Bad Oldesloe — Graph

°F

Bad Oldesloe temperature yesterday

Maximum temperature yesterday: 70 °F (at 10:20 AM)
Minimum temperature yesterday: 57 °F (at 10:20 PM)
Average temperature yesterday: 64 °F

Past Weeks' High & Low Weather Summary

 TemperatureHumidityPressure
High81 °F (Aug 31, 3:50 PM)100% (Aug 18, 8:50 PM)30.30 "Hg (Aug 18, 8:50 PM)
Low48 °F (Aug 21, 6:50 AM)30% (Aug 21, 3:50 PM)29.62 "Hg (Aug 24, 7:50 PM)
Average66 °F74%29.99 "Hg
* Reported Aug 18 6:20 PM — Sep 2 6:20 PM, Bad Oldesloe, Weather by CustomWeather, © 2015

Note: Actual official high and low records may vary slightly from our data, if they occured in-between our weather recording intervals... More about our weather records

Advertising

Bad Oldesloe weather history for previous 24 hours

 ConditionsComfort  
Time TempWeatherWind HumidityBarometerVisibility
6:20 PM
Wed, Sep 2
66 °FScattered clouds.12 mph56%29.92 "HgN/A
5:20 PM64 °FSunny.10 mph56%29.92 "Hg10 mi
4:50 PM64 °FScattered clouds.13 mph52%29.92 "HgN/A
4:20 PM68 °FScattered clouds.15 mph49%29.92 "HgN/A
3:50 PM66 °FScattered clouds.15 mph52%29.92 "HgN/A
3:20 PM66 °FScattered clouds.16 mph52%29.92 "HgN/A
2:50 PM64 °FScattered clouds.16 mph56%29.92 "HgN/A
2:20 PM64 °FScattered clouds.16 mph56%29.92 "HgN/A
1:50 PM64 °FScattered clouds.16 mph60%29.92 "HgN/A
1:20 PM64 °FScattered clouds.16 mph60%29.92 "HgN/A
12:50 PM64 °FScattered clouds.17 mph60%29.92 "HgN/A
12:20 PM63 °FScattered clouds.20 mph64%29.92 "HgN/A
11:50 AM63 °FScattered clouds.16 mph64%29.92 "HgN/A
11:20 AM63 °FScattered clouds.17 mph64%29.92 "HgN/A
10:50 AM61 °FScattered clouds.16 mph68%29.92 "HgN/A
10:20 AM61 °FPassing clouds.16 mph72%29.92 "HgN/A
9:50 AM59 °FPassing clouds.14 mph77%29.92 "HgN/A
9:20 AM57 °FPassing clouds.12 mph82%29.92 "HgN/A
8:50 AM57 °FPassing clouds.10 mph82%29.92 "HgN/A
8:20 AM55 °FPassing clouds.10 mph88%29.92 "HgN/A
7:50 AM55 °FPassing clouds.9 mph88%29.89 "HgN/A
7:20 AM54 °FPassing clouds.7 mph94%29.89 "HgN/A
6:50 AM54 °FPassing clouds.8 mph88%29.89 "HgN/A
10:20 PM
Tue, Sep 1
57 °FPassing clouds.6 mph88%29.86 "HgN/A
9:50 PM59 °FPassing clouds.7 mph82%29.86 "HgN/A
9:20 PM59 °FPassing clouds.7 mph82%29.86 "HgN/A
8:50 PM61 °FScattered clouds.8 mph77%29.83 "HgN/A
8:20 PM61 °FBroken clouds.7 mph83%29.83 "HgN/A
7:50 PM61 °FBroken clouds.7 mph88%29.83 "HgN/A
7:20 PM61 °FLight rain. Partly sunny.7 mph88%29.80 "HgN/A
Weather by CustomWeather, © 2015

See weather overviewHow to use our weather pages